Location: Newark
(47.5833°N, 8.1500°E)
Time: 23:28:27
(UTC+00:00)

Tiros 1 despin weight - Pass Details

Date: 04 November 2020
Orbit: 593 x 642 km, 48.2° (Epoch: 29 November)

Event Time Altitude Azimuth Distance (km) Brightness Sun altitude
Rises 03:45:09 0° 281° (W) 2,843 - -25.8°
Reaches altitude 10° 03:48:12 10° 259° (W) 1,930 - -25.3°
Maximum altitude 03:50:51 16° 222° (SW) 1,583 - -24.8°
Drops below altitude 10° 03:53:29 10° 185° (S) 1,917 - -24.4°
Exits shadow 03:54:07 - 179° (S) 2,076 ? -24.3°
Sets 03:56:31 0° 163° (SSE) 2,813 ? -23.9°
